Location: *
(60.1759°S, 155.0663°W)
Time: 11:56:41
(UTC+00:00)

CZ-4C R/B - Pass Details

Date: 17 September 2019
Orbit: 654 x 1348 km, 63.4° (Epoch: 15 October)

Event Time Altitude Azimuth Distance (km) Brightness Sun altitude
Rises 15:30:53 0° 326° (NW) 4,236 5.4 -7.4°
Reaches altitude 10° 15:33:55 10° 330° (NNW) 3,198 4.8 -7.0°
Maximum altitude 15:41:20 55° 44° (NE) 1,317 3.5 -6.1°
Drops below altitude 10° 15:47:41 10° 119° (ESE) 2,737 6.1 -5.3°
Sets 15:50:05 0° 123° (ESE) 3,587 6.7 -5.0°
